Flag for Mali Weather past 2 weeks in Sikasso, Mali

Now
75 °F

Clear.


Feels Like: 73 °F
Forecast: 73 / 91 °F
Wind: 3 mph from Southwest

Location: Bamako / Senou

Current Time: Jul 28, 2014 at 6:33:03 AM

Latest Report: Jul 28, 2014 at 6:00 AM


Visibility: 10 mi

Pressure: 29.95 "Hg

Humidity: 100%

Dew point: 75 °F

Location of SikassoLocation

Historic Weather in Sikasso — Graph

°F

Sikasso temperature yesterday

Maximum temperature yesterday: 91 °F (at 3:00 PM)
Minimum temperature yesterday: 73 °F (at 4:00 AM)
Average temperature yesterday: 82 °F

Past Weeks' High & Low Weather Summary

 TemperatureHumidityPressure
High95 °F (Jul 16, 5:00 PM)100% (Jul 13, 4:00 PM)30.09 "Hg (Jul 13, 4:00 PM)
Low70 °F (Jul 17, 8:30 PM)46% (Jul 21, 3:00 PM)29.74 "Hg (Jul 22, 3:00 PM)
Average80 °F81%29.99 "Hg
* Reported Jul 13 5:00 AM — Jul 28 5:30 AM, Sikasso, Weather by CustomWeather, © 2014

Note: Actual official high and low records may vary slightly from our data, if they occured in-between our weather recording intervals... More about our weather records

Advertising

Sikasso weather history for previous 24 hours

 ConditionsComfort  
Time TempWeatherWind HumidityBarometerVisibility
5:30 AM
Jul 28
75 °FClear.2 mph100%29.95 "Hg10 mi
5:00 AM75 °FClear.3 mph100%29.95 "Hg10 mi
4:30 AM73 °FClear.1 mph100%29.95 "Hg10 mi
4:00 AM75 °FClear.2 mph100%29.92 "Hg10 mi
3:30 AM75 °FClear.2 mph100%29.92 "Hg10 mi
3:00 AM75 °FClear.2 mph100%29.95 "Hg10 mi
2:30 AM75 °FClear.3 mph100%29.95 "Hg10 mi
2:00 AM77 °FClear.2 mph94%29.95 "Hg10 mi
1:30 AM77 °FClear.3 mph94%29.95 "Hg10 mi
1:00 AM77 °FClear.3 mph94%29.95 "Hg10 mi
12:30 AM79 °FClear.3 mph89%29.95 "Hg10 mi
12:00 AM77 °FClear.5 mph89%29.98 "Hg10 mi
11:30 PM
Jul 27
81 °FClear.6 mph84%29.98 "Hg10 mi
11:00 PM81 °FClear.5 mph89%29.98 "Hg10 mi
10:30 PM81 °FClear.5 mph89%29.98 "Hg10 mi
10:00 PM81 °FClear.6 mph89%29.98 "Hg10 mi
9:30 PM82 °FClear.7 mph84%29.95 "Hg10 mi
9:00 PM81 °FClear.7 mph89%29.95 "Hg10 mi
8:30 PM84 °FPassing clouds.3 mph79%29.92 "HgN/A
8:00 PM84 °FPassing clouds.5 mph79%29.92 "HgN/A
7:30 PM84 °FPassing clouds.6 mph79%29.92 "HgN/A
7:00 PM86 °FPassing clouds.5 mph70%29.89 "HgN/A
6:30 PM90 °FScattered clouds.5 mph59%29.86 "HgN/A
6:00 PM90 °FScattered clouds.3 mph52%29.86 "HgN/A
5:30 PM91 °FScattered clouds.3 mph49%29.86 "HgN/A
5:00 PM90 °FScattered clouds.5 mph55%29.89 "HgN/A
4:30 PM91 °FScattered clouds.6 mph49%29.89 "HgN/A
4:00 PM91 °FScattered clouds.3 mph49%29.89 "HgN/A
3:30 PM91 °FScattered clouds.1 mph52%29.89 "HgN/A
3:00 PM91 °FPartly sunny.3 mph52%29.89 "HgN/A
2:30 PM90 °FPartly sunny.5 mph59%29.92 "HgN/A
2:00 PM90 °FPartly sunny.7 mph59%29.92 "HgN/A
1:30 PM90 °FPartly sunny.7 mph63%29.92 "HgN/A
1:00 PM88 °FPartly sunny.6 mph66%29.95 "HgN/A
12:30 PM88 °FPartly sunny.5 mph62%29.95 "HgN/A
12:00 PM88 °FScattered clouds.2 mph62%29.98 "HgN/A
11:30 AM86 °FScattered clouds.1 mph75%29.98 "HgN/A
11:00 AM88 °FScattered clouds.No wind70%29.98 "HgN/A
10:30 AM86 °FScattered clouds.3 mph75%30.01 "HgN/A
10:00 AM84 °FScattered clouds.3 mph74%30.01 "HgN/A
9:30 AM82 °FScattered clouds.1 mph84%30.01 "HgN/A
9:00 AM82 °FPartly sunny.1 mph84%30.01 "HgN/A
8:30 AM81 °FSunny.2 mph94%30.01 "Hg10 mi
8:00 AM79 °FSunny.2 mph94%30.01 "Hg10 mi
7:30 AM77 °FSunny.1 mph100%29.98 "Hg10 mi
7:00 AM75 °FSunny.2 mph100%29.95 "Hg10 mi
6:30 AM75 °FSunny.2 mph100%29.95 "Hg10 mi
6:00 AM75 °FClear.1 mph100%29.95 "Hg10 mi
Weather by CustomWeather, © 2014

See weather overviewHow to use our weather pages